Loreto, Mexico

8:49 AM MDT on July 05, 2015 (GMT -0600)
Loreto International | | Change Station
CLOSE
Current Station
Airport
Location: Loreto,
Elevation: 23 ft
Nearby Weather Stations

Elev 23 ft 26.02 °N, 111.35 °W | Updated 1 hour ago

Scattered Clouds
Scattered Clouds
84 °F
Feels Like 91 °F
N
0
Wind Variable Wind from North

Today
High -- | Low -- °F
--% Chance of Precip.
Yesterday
High -- | Low -- °F
Precip. -- in
6:38 AM 8:21 PM
Waning Gibbous, 84% visible
Pressure 29.84 in
Visibility 8.0 miles
Clouds Scattered Clouds 22000 ft
Heat Index 91 °F
Dew Point 73 °F
Humidity 70%
Rainfall 0.00 in
Snow Depth Not available.
UV 0 out of 12
Pollen Not available.
Air Quality Not available.
Flu Activity Not available.
METAR MMLT 051254Z 00000KT 8SM SCT220 29/23 A2984 RMK 8/001 RTS

More Conditions Fewer Conditions

Pressure 29.84 in
Visibility 8.0 miles
Clouds Scattered Clouds 22000 ft
Heat Index 91 °F
Dew Point 73 °F
Humidity 70%
Rainfall 0.00 in
Snow Depth Not available.
UV 0 out of 12
Pollen Not available.
Air Quality Not available.
Flu Activity Not available.
METAR MMLT 051254Z 00000KT 8SM SCT220 29/23 A2984 RMK 8/001 RTS

More Conditions Fewer Conditions

10-Day Weather Forecast

×

Almanac

Astronomy

Jul. 05, 2015 Rise Set
Actual Time
Civil Twilight
Nautical Twilight
Astronomical Twilight
Moon
Length of Visible Light
Length of Day
Tomorrow will be .
, % of the Moon is Illuminated

Today's Extremes

Country Highs Country Lows

Community

WunderPhotos

Upload Photos

1,835,278 photos uploaded!

WunderBlogs® & News

Nearby

Air Quality

  Air Quality AQ Index Pollutant
Not available.

Snow Depth

Station Depth Elevation

Earthquake Activity

City Distance Mag. Time & Date
Minimum magnitude displayed is 2.5.

Coastal Water Temperatures

Place Temperature

Stations

Nearby Weather Stations

Station Location Temp. Windchill Dew Point Humidity Wind Precip. Elev Updated Type